KC5EZZ-13 Weather Reports


time (UTC)temp
C
wind
direction
speed
KPH
gust
KPH
rain 1hr
cm
rain 24hr
cm
rain mn
cm
humidity
%
barometer
mb
20260507044552 13 0 0.0 0.0 0.00 0.13 0.13 75 1017.2
20260507043059 13 0 0.0 0.0 0.00 0.13 0.13 74 1017.4
20260507041603 13 0 0.0 0.0 0.00 0.13 0.13 74 1017.2
20260507040057 13 0 0.0 0.0 0.00 0.13 0.13 74 1016.8
20260507034555 13 0 0.0 0.0 0.00 0.13 0.13 74 1016.6
20260507033055 14 0 1.6 4.8 0.00 0.13 0.13 74 1016.5
20260507031550 14 103 1.6 6.4 0.00 0.13 0.13 74 1016.3
20260507030058 14 71 1.6 4.8 0.00 0.13 0.13 74 1016.0
20260507024552 15 86 3.2 9.7 0.00 0.13 0.13 74 1015.9
20260507023111 15 94 3.2 9.7 0.00 0.13 0.13 74 1015.5
20260507021556 15 94 1.6 6.4 0.00 0.13 0.13 74 1015.5
20260507020056 15 110 3.2 6.4 0.00 0.13 0.13 75 1015.2
20260507014607 16 114 1.6 6.4 0.00 0.13 0.13 75 1015.2
20260507013113 16 139 1.6 3.2 0.00 0.13 0.13 75 1015.2
20260507011600 17 117 3.2 6.4 0.00 0.13 0.13 75 1015.2
20260507010055 17 112 1.6 6.4 0.00 0.13 0.13 75 1014.8
20260507004553 18 69 4.8 9.7 0.00 0.13 0.13 76 1014.7
20260507003050 18 73 4.8 11.3 0.00 0.13 0.13 76 1014.7
20260507001612 18 36 4.8 8.0 0.00 0.13 0.13 76 1014.6
20260507000058 18 22 4.8 19.3 0.00 0.13 0.13 76 1014.4
20260506234553 18 111 6.4 12.9 0.00 0.13 0.13 76 1014.4
20260506233102 18 82 6.4 12.9 0.00 0.13 0.13 77 1014.3
20260506231554 18 65 6.4 9.7 0.00 0.13 0.13 77 1014.2
20260506230057 18 64 3.2 9.7 0.00 0.13 0.13 77 1014.1
20260506224552 18 336 6.4 12.9 0.00 0.13 0.13 77 1013.9
20260506223105 18 30 3.2 8.0 0.00 0.13 0.13 77 1014.0
20260506221603 18 63 1.6 9.7 0.00 0.13 0.13 77 1013.9
20260506220055 18 0 0.0 11.3 0.00 0.13 0.13 77 1014.0
20260506214604 18 65 4.8 9.7 0.00 0.13 0.13 77 1014.1
20260506213051 17 30 6.4 14.5 0.00 0.13 0.13 77 1014.2
20260506211555 17 36 4.8 12.9 0.00 0.13 0.13 77 1014.2
20260506210053 17 270 0.0 12.9 0.00 0.13 0.13 77 1014.4
20260506204553 16 25 3.2 9.7 0.00 0.13 0.13 77 1014.6
20260506203100 16 354 4.8 12.9 0.00 0.13 0.13 77 1015.1
20260506201551 16 18 6.4 11.3 0.00 0.13 0.13 76 1015.3
20260506200137 15 335 6.4 12.9 0.00 0.13 0.13 76 1015.2
20260506194600 15 6 8.0 14.5 0.00 0.13 0.13 76 1015.5
20260506193052 15 314 4.8 16.1 0.00 0.13 0.13 75 1015.3
20260506191557 14 6 11.3 17.7 0.00 0.13 0.13 75 1015.7
20260506190050 14 314 6.4 11.3 0.00 0.13 0.13 75 1016.1
20260506184555 13 19 6.4 17.7 0.00 0.13 0.13 74 1016.1
20260506183055 13 354 8.0 19.3 0.00 0.13 0.13 74 1016.4
20260506181559 13 83 9.7 20.9 0.00 0.13 0.13 73 1016.4
20260506180106 12 357 4.8 14.5 0.00 0.13 0.13 73 1016.6
20260506174604 12 25 8.0 22.5 0.00 0.13 0.13 73 1016.5
20260506173116 12 328 6.4 14.5 0.00 0.13 0.13 72 1016.5
20260506171602 12 340 6.4 14.5 0.03 0.13 0.13 72 1016.5
20260506170059 12 12 6.4 12.9 0.03 0.13 0.13 72 1016.3
20260506164559 12 20 8.0 17.7 0.03 0.13 0.13 71 1016.2
20260506163108 12 323 6.4 12.9 0.03 0.13 0.13 71 1016.1
20260506161600 12 319 6.4 16.1 0.00 0.10 0.10 71 1015.8
20260506160110 12 27 8.0 16.1 0.00 0.10 0.10 70 1015.8
20260506154558 11 6 11.3 19.3 0.00 0.10 0.10 70 1015.4
20260506153053 11 23 6.4 16.1 0.00 0.10 0.10 70 1014.8
20260506151555 11 11 9.7 20.9 0.00 0.10 0.10 69 1015.0
20260506144556 11 44 4.8 12.9 0.08 0.10 0.10 69 1014.5
20260506143056 11 32 3.2 19.3 0.10 0.10 0.10 68 1014.3
20260506141555 11 305 1.6 19.3 0.10 0.10 0.10 68 1014.4
20260506140054 11 273 6.4 29.0 0.10 0.10 0.10 68 1014.9
20260506134618 11 66 8.0 16.1 0.03 0.03 0.03 68 1014.5
20260506133056 12 60 4.8 19.3 0.00 0.00 0.00 67 1015.7
20260506131608 12 335 9.7 24.1 0.00 0.00 0.00 67 1015.6
20260506130055 12 300 11.3 25.7 0.00 0.00 0.00 67 1014.2
20260506124556 12 22 14.5 24.1 0.00 0.00 0.00 67 1014.1
20260506123055 12 314 4.8 27.4 0.00 0.00 0.00 66 1014.5
20260506121605 13 349 9.7 19.3 0.00 0.00 0.00 66 1013.1
20260506120054 13 343 9.7 16.1 0.00 0.00 0.00 65 1012.9
20260506114556 13 359 9.7 17.7 0.00 0.00 0.00 65 1012.5
20260506113054 13 8 12.9 17.7 0.00 0.00 0.00 65 1012.1
20260506111610 13 34 11.3 17.7 0.00 0.00 0.00 64 1011.7
20260506110055 13 4 9.7 17.7 0.00 0.00 0.00 64 1012.1
20260506104553 13 23 11.3 19.3 0.00 0.00 0.00 63 1012.0
20260506103101 14 34 9.7 16.1 0.00 0.00 0.00 63 1011.8
20260506101557 14 335 8.0 14.5 0.00 0.00 0.00 62 1011.9
20260506100101 14 20 9.7 17.7 0.00 0.00 0.00 62 1011.4
20260506094555 14 16 11.3 19.3 0.00 0.00 0.00 61 1011.1
20260506093057 14 345 8.0 24.1 0.00 0.00 0.00 61 1010.8
20260506091552 15 348 6.4 12.9 0.00 0.00 0.00 60 1010.8
20260506090056 15 7 9.7 14.5 0.00 0.00 0.00 60 1010.7
20260506084601 15 18 8.0 17.7 0.00 0.00 0.00 59 1010.4
20260506083112 16 23 8.0 16.1 0.00 0.00 0.00 59 1010.2
20260506081554 16 359 6.4 12.9 0.00 0.00 0.00 58 1010.3
20260506073056 16 354 3.2 8.0 0.00 0.00 0.00 56 1010.1
20260506071556 16 0 0.0 1.6 0.00 0.00 0.00 55 1010.1
20260506070126 17 58 0.0 6.4 0.00 0.00 0.00 55 1010.0
20260506061553 18 25 0.0 4.8 0.00 0.00 0.00 53 1010.0
20260506050109 20 19 8.0 16.1 0.00 0.00 0.00 49 1009.7